Regional Weather Roundup
Issued by NWS

Home | Current Version | Previous Version | Graphics & Text | Print | Product List | Glossary Off
Versions: 1 2 3 4 5 6 7 8 9 10 11 12 13 14 15 16 17 18 19 20 21 22 23 24 25 26 27 28 29 30 31 32 33 34 35 36 37 38 39 40 41 42 43 44 45 46 47 48 49 50

000
ASUS43 KMPX 281110
RWRMN
WEATHER ROUNDUP FOR MINNESOTA
NATIONAL WEATHER SERVICE TWIN CITIES/CHANHASSEN MN
600 AM CDT MON JUL 28 2014


NOTE: "FAIR" INDICATES FEW OR NO CLOUDS BELOW 12,000 FEET WITH NO
SIGNIFICANT WEATHER AND/OR OBSTRUCTIONS TO VISIBILITY. N/A MEANS
CURRENT SKY AND/OR WEATHER CONDITIONS ARE NOT AVAILABLE.

MNZ060>063-068>070-281200-
   Twin Cities Metro

CITY           SKY/WX    TMP DP  RH WIND       PRES   REMARKS
TWIN CITIES    MOCLDY    63  58  83 NW6       30.17R
ST PAUL        CLOUDY    63  56  78 VRB7      30.17R
CRYSTAL        CLOUDY    63  57  81 NW6       30.17R
BLAINE         CLOUDY    64  61  88 N3        30.18R
LAKEVILLE      CLOUDY    61  57  88 NW5       30.17R
EDEN PRAIRIE   CLOUDY    64  58  80 NW6       30.17R
SOUTH ST PAUL  CLOUDY    64  55  73 N3        30.17R
LAKE ELMO      CLOUDY    61  57  88 CALM      30.18R
$$
MNZ001>005-007-008-013>017-022>024-027-028-281200-
   Northwest Minnesota

CITY           SKY/WX    TMP DP  RH WIND       PRES   REMARKS
BEMIDJI        CLOUDY    57  55  92 W5        30.22S
HALLOCK        CLOUDY    55  54  94 NW5       30.25R
ROSEAU         CLEAR     55  50  82 W5        30.23R
WARROAD        MOCLDY    55  52  88 NW5       30.22S
THIEF RVR FALL CLOUDY    59  55  88 NW6       30.24S
CROOKSTON      CLOUDY    57  55  94 NW5       30.26R
FOSSTON        CLOUDY    57  54  88 CALM      30.25R
DETROIT LAKES  CLOUDY    59  55  88 NW5       30.26R
MOORHEAD       CLOUDY    59  59 100 N6        30.26R
PARK RAPIDS    CLOUDY    59  55  87 NW6       30.22R
$$
MNZ006-009>011-018-025>026-281200-
   North Central Minnesota

CITY           SKY/WX    TMP DP  RH WIND       PRES   REMARKS
BAUDETTE       PTCLDY    56  54  93 CALM      30.22R
FLAG ISLAND    CLEAR     57  55  94 W6        30.20R
INTL FALLS     PTCLDY    50  49  96 W3        30.18S
WASKISH        PTCLDY    57  55  94 CALM      30.21R
BIG FORK       CLEAR     50  48  93 NW1       30.21R
LONGVILLE      CLOUDY    59  55  88 CALM      30.21R
GRAND RAPIDS   CLOUDY    55  52  88 NW5       30.20R
CRANE LAKE     CLEAR     45  45 100 CALM      30.19
ORR            PTCLDY    54  52  94 NW3       30.16S
COOK           PTCLDY    52  52 100 CALM      30.18S
$$
MNZ012-019>021-037-281200-
   Northeast Minnesota

CITY           SKY/WX    TMP DP  RH WIND       PRES   REMARKS
DULUTH         CLOUDY    57  53  86 NW6       30.16R
ELY            PTCLDY    54  50  87 NW5       30.16S
HIBBING        CLOUDY    57  52  83 N3        30.18R
EVELETH        MOCLDY    57  52  82 NW3       30.18S
DULUTH HARBOR  CLOUDY    59  55  88 SW6       30.16S
TWO HARBORS    CLOUDY    57  52  82 NW3       30.13S
SILVER BAY     CLEAR     57  54  88 NW3       30.12S
GRAND MARAIS     N/A     59  52  77 NW8       30.09S
G MARAIS ARPRT   N/A     52  48  87 NW5       30.13S
$$
MNZ029>031-032-039>041-046>048-054>057-064-281200-
   West Central Minnesota

CITY           SKY/WX    TMP DP  RH WIND       PRES   REMARKS
FERGUS FALLS   CLOUDY    61  57  88 N7        30.25R
WHEATON        CLOUDY    57  55  94 W6        30.27R
MORRIS         CLOUDY    61  57  88 NW5       30.23R
ALEXANDRIA     CLOUDY    62  58  86 NW10      30.25R
ELBOW LAKE     CLOUDY    59  58  95 NW8       30.24R
WADENA         CLOUDY    57  55  94 NW3       30.22S
GLENWOOD       CLOUDY    61  57  88 NW7       30.23S
APPLETON       CLOUDY    61  57  88 NW5       30.23S
BENSON         CLOUDY    61  59  94 N6        30.23R
ORTONVILLE     CLOUDY    61  55  82 NW7       30.24S
MADISON        MOCLDY    63  61  94 NW6       30.24R
WILLMAR        CLOUDY    63  59  88 NW5       30.23S
$$
MNZ033>034-036-042>043-049>051-058-059-281200-
   Central Minnesota

CITY           SKY/WX    TMP DP  RH WIND       PRES   REMARKS
ST CLOUD       CLOUDY    63  58  83 NW5       30.19R
SAUK CENTRE    CLOUDY    61  58  89 NW7       30.22R
PAYNESVILLE    CLOUDY    59  57  95 W5        30.22R
AITKIN         CLOUDY    61  55  82 CALM      30.18S
PINE RIVER     CLOUDY    61  55  82 NW3       30.24R
BRAINERD       CLOUDY    61  56  83 NW7       30.20R
STAPLES        CLOUDY    57  55  94 NW5       30.22R
LONG PRAIRIE   CLOUDY    59  55  88 NW5       30.22S
LITTLE FALLS   CLOUDY    61  54  77 NW5       30.21R
LITCHFIELD     CLOUDY    63  63 100 NW6       30.21S
BUFFALO        CLOUDY    63  57  81 NW6       30.20R
MAPLE LAKE     CLOUDY    63  60  88 NW5       30.20R
$$
MNZ037-044-045-052-053-281200-
   East Central Minnesota

CITY           SKY/WX    TMP DP  RH WIND       PRES   REMARKS
PRINCETON      CLOUDY    63  57  82 NW3       30.19R
MORA           CLOUDY    59  52  77 CALM      30.20R
CAMBRIDGE      CLOUDY    63  54  72 CALM      30.17R
RUSH CITY      CLOUDY    58  55  90 CALM      30.18R
MOOSE LAKE     CLOUDY    55  54  94 CALM      30.16S
HINCKLEY       CLOUDY    59  55  88 CALM      30.18R
CLOQUET        CLOUDY    55  54  94 NW5       30.17S
MCGREGOR       CLOUDY    57  55  94 NW5       30.19S
$$
MNZ071>073-080-081-089-090-097-098-281200-
   Southwest Minnesota

CITY           SKY/WX    TMP DP  RH WIND       PRES   REMARKS
MONTEVIDEO     CLOUDY    61  57  88 N6        30.24S
GRANITE FALLS  CLOUDY    60  59  97 NW6       30.24S
CANBY          LGT RAIN  60  56  88 NW7       30.26R
MARSHALL       MOCLDY    61  55  82 NW9       30.22S
REDWOOD FALLS  LGT RAIN  62  60  93 NW5       30.21R
OLIVIA         CLOUDY    61  59  94 NW5       30.21R
PIPESTONE      PTCLDY    55  54  94 N7        30.24S
WINDOM         CLOUDY    61  57  88 NW5       30.22R
WORTHINGTON    CLOUDY    57  55  94 NW8       30.23S
JACKSON        CLOUDY    59  55  88 NW5       30.22S
TRACY          LGT RAIN  60  58  92 NW9       30.23S
SLAYTON        CLOUDY    58  57  97 CALM      30.24S
$$
MNZ065>067-074>077-082>085-091>093-281200-
   South Central Minnesota

CITY           SKY/WX    TMP DP  RH WIND       PRES   REMARKS
MANKATO        CLOUDY    59  55  88 NW3       30.19S
NEW ULM        CLOUDY    63  63 100 N9        30.20R
ST JAMES       CLOUDY    61  61 100 W3        30.21S
FAIRMONT       CLOUDY    61  55  82 NW6       30.20S
GLENCOE        MOCLDY    63  58  86 NW5       30.19R
FARIBAULT      CLOUDY    64  55  72 CALM      30.18S
OWATONNA       CLOUDY    61  57  88 NW3       30.18S
WASECA         MOCLDY    55  52  88 CALM      30.20S
ALBERT LEA     PTCLDY    57  55  94 CALM      30.19R
$$
MNZ078>079-086>088-094>096-281200-
   Southeast Minnesota

CITY           SKY/WX    TMP DP  RH WIND       PRES   REMARKS
ROCHESTER      CLOUDY    58  54  86 N5        30.18S
RED WING       CLOUDY    57  55  94 CALM      30.16R
STANTON        CLOUDY    62  58  87 CALM      30.16R
DODGE CENTER   CLOUDY    59  55  88 NW3       30.18R
WINONA         CLOUDY    57  55  94 CALM      30.16R
AUSTIN         CLOUDY    59  55  88 NW5       30.17S
PRESTON        CLOUDY    55  55 100 CALM      30.17R
$$
ABBREVIATIONS USED IN REMARKS
   TC - TEMPERATURES IN CELSIUS
  WCI - WIND CHILL INDEX
   HX - HEAT INDEX
  VSB - VISIBILITY
$$



USA.gov is the U.S. government's official web portal to all federal, state and local government web resources and services.